Stinnett, TX

10:38 AM CST on February 20, 2017 (GMT -0600)
Pampa / Mesa Vista

Weather History for KBPC - November, 2011

Change the Weather History Date:

Tuesday, November 1, 2011

  Actual Average (KBGD) Record (KBGD)
Temperature  
Mean Temperature 65 °F -  
Max Temperature 82 °F 62 °F 84 °F (1952)
Min Temperature 48 °F 40 °F 18 °F (1991)
Growing Degree Days 15 (Base 50)    
Moisture  
Dew Point 33 °F    
Average Humidity 37    
Maximum Humidity 62    
Minimum Humidity 14    
Precipitation  
Precipitation 0.00 in - - ()
Sea Level Pressure  
Sea Level Pressure 29.89 in    
Wind  
Wind Speed 12 mph (SW)    
Max Wind Speed 20 mph    
Max Gust Speed 25 mph    
Visibility 10 miles    
Events      
Averages and records for this station are not official NWS values.
T = Trace of Precipitation, MM = Missing Value Source: NWS Daily Summary

Daily Weather History Graph

Daily Weather History Graph

Search for Another Location

Airport or City:

Trip Planner

Search our weather history database for the weather conditions in past years. The results will help you decide how hot, cold, wet, or windy it might be!

Date:

Astronomy

Nov. 01, 2011 Rise Set
Actual Time 8:06 AM CDT 6:48 PM CDT
Civil Twilight 7:39 AM CDT 7:15 PM CDT
Nautical Twilight 7:09 AM CDT 7:45 PM CDT
Astronomical Twilight 6:39 AM CDT 8:15 PM CDT
Moon 1:52 PM CDT (11/1) No Moon Set
Length of Visible Light 11h 35m
Length of Day
10h 42m
Waxing Crescent, 40% of the Moon is Illuminated
Nov 1
Waxing Crescent
Nov 2
First Quarter
Nov 10
Full
Nov 18
Last Quarter
Nov 25
New

Hourly Weather History & Observations

Time (CDT) Temp. Dew Point Humidity Pressure Visibility Wind Dir Wind Speed Gust Speed Precip Events Conditions
12:15 AM 57.2 °F 35.6 °F 44% 29.94 in 10.0 mi SW 11.5 mph 16.1 mph N/A   Clear
12:35 AM 55.4 °F 35.6 °F 47% 29.94 in 10.0 mi WSW 6.9 mph - N/A   Clear
12:55 AM 55.4 °F 37.4 °F 51% 29.93 in 10.0 mi SW 10.4 mph - N/A   Clear
1:15 AM 55.4 °F 35.6 °F 47% 29.93 in 10.0 mi SW 11.5 mph - N/A   Clear
1:35 AM 51.8 °F 35.6 °F 54% 29.93 in 10.0 mi SW 10.4 mph - N/A   Clear
1:55 AM 51.8 °F 35.6 °F 54% 29.93 in 10.0 mi SSW 9.2 mph - N/A   Clear
2:15 AM 53.6 °F 35.6 °F 51% 29.92 in 10.0 mi SSW 10.4 mph - N/A   Clear
2:35 AM 55.4 °F 33.8 °F 44% 29.92 in 10.0 mi SSW 16.1 mph - N/A   Clear
2:55 AM 55.4 °F 33.8 °F 44% 29.91 in 10.0 mi SSW 19.6 mph 25.3 mph N/A   Clear
3:15 AM 55.4 °F 33.8 °F 44% 29.90 in 10.0 mi SSW 17.3 mph 25.3 mph N/A   Clear
3:35 AM 55.4 °F 33.8 °F 44% 29.89 in 10.0 mi SSW 17.3 mph - N/A   Clear
3:55 AM 55.4 °F 33.8 °F 44% 29.89 in 10.0 mi SW 16.1 mph 24.2 mph N/A   Clear
4:15 AM 55.4 °F 33.8 °F 44% 29.89 in 10.0 mi SW 15.0 mph - N/A   Clear
4:35 AM 53.6 °F 33.8 °F 47% 29.89 in 10.0 mi SW 11.5 mph - N/A   Clear
4:55 AM 53.6 °F 33.8 °F 47% 29.89 in 10.0 mi SW 12.7 mph - N/A   Clear
5:15 AM 51.8 °F 35.6 °F 54% 29.89 in 10.0 mi SW 13.8 mph - N/A   Clear
5:35 AM 51.8 °F 35.6 °F 54% 29.89 in 10.0 mi WSW 13.8 mph - N/A   Clear
5:55 AM 53.6 °F 35.6 °F 51% 29.90 in 10.0 mi WSW 12.7 mph - N/A   Clear
6:15 AM 53.6 °F 35.6 °F 51% 29.90 in 10.0 mi WSW 12.7 mph - N/A   Clear
6:35 AM 51.8 °F 35.6 °F 54% 29.90 in 10.0 mi WSW 12.7 mph - N/A   Clear
6:55 AM 51.8 °F 35.6 °F 54% 29.90 in 10.0 mi SW 10.4 mph - N/A   Clear
7:15 AM 50.0 °F 35.6 °F 58% 29.90 in 10.0 mi SW 11.5 mph - N/A   Clear
7:35 AM 50.0 °F 35.6 °F 58% 29.91 in 10.0 mi SW 10.4 mph - N/A   Clear
7:55 AM 48.2 °F 35.6 °F 62% 29.91 in 10.0 mi SW 11.5 mph - N/A   Clear
8:15 AM 48.2 °F 35.6 °F 62% 29.91 in 10.0 mi SW 13.8 mph - N/A   Clear
8:35 AM 48.2 °F 35.6 °F 62% 29.92 in 10.0 mi WSW 11.5 mph - N/A   Clear
8:55 AM 50.0 °F 35.6 °F 58% 29.93 in 10.0 mi WSW 11.5 mph - N/A   Clear
9:15 AM 51.8 °F 35.6 °F 54% 29.94 in 10.0 mi WSW 9.2 mph - N/A   Clear
9:35 AM 53.6 °F 35.6 °F 51% 29.94 in 10.0 mi WSW 12.7 mph - N/A   Clear
9:55 AM 55.4 °F 35.6 °F 47% 29.94 in 10.0 mi WSW 11.5 mph - N/A   Clear
10:15 AM 59.0 °F 33.8 °F 39% 29.94 in 10.0 mi WSW 12.7 mph - N/A   Clear
10:35 AM 60.8 °F 33.8 °F 36% 29.94 in 10.0 mi WSW 9.2 mph - N/A   Clear
10:55 AM 62.6 °F 33.8 °F 34% 29.94 in 10.0 mi WSW 8.1 mph - N/A   Clear
11:15 AM 62.6 °F 32.0 °F 32% 29.93 in 10.0 mi WSW 8.1 mph - N/A   Clear
11:35 AM 64.4 °F 33.8 °F 32% 29.93 in 10.0 mi WSW 9.2 mph - N/A   Clear
11:55 AM 68.0 °F 33.8 °F 28% 29.93 in 10.0 mi WSW 6.9 mph - N/A   Clear
12:15 PM 69.8 °F 32.0 °F 25% 29.92 in 10.0 mi WSW 6.9 mph - N/A   Clear
12:35 PM 71.6 °F 32.0 °F 23% 29.91 in 10.0 mi WSW 8.1 mph - N/A   Clear
12:55 PM 71.6 °F 32.0 °F 23% 29.91 in 10.0 mi SW 8.1 mph - N/A   Clear
1:15 PM 73.4 °F 32.0 °F 22% 29.90 in 10.0 mi SW 6.9 mph - N/A   Clear
1:35 PM 77.0 °F 32.0 °F 19% 29.88 in 10.0 mi SSW 8.1 mph - N/A   Clear
2:15 PM 78.8 °F 30.2 °F 17% 29.86 in 10.0 mi SW 10.4 mph 16.1 mph N/A   Clear
2:35 PM 80.6 °F 28.4 °F 15% 29.85 in 10.0 mi SW 10.4 mph - N/A   Clear
2:55 PM 82.4 °F 28.4 °F 14% 29.84 in 10.0 mi SW 11.5 mph 18.4 mph N/A   Clear
3:15 PM 82.4 °F 28.4 °F 14% 29.83 in 10.0 mi SW 13.8 mph 18.4 mph N/A   Clear
3:35 PM 82.4 °F 28.4 °F 14% 29.82 in 10.0 mi SSW 11.5 mph 18.4 mph N/A   Clear
3:55 PM 82.4 °F 30.2 °F 15% 29.82 in 10.0 mi SW 15.0 mph - N/A   Clear
4:15 PM 82.4 °F 28.4 °F 14% 29.82 in 10.0 mi SW 12.7 mph - N/A   Clear
4:35 PM 82.4 °F 28.4 °F 14% 29.81 in 10.0 mi SSW 17.3 mph 23.0 mph N/A   Clear
4:55 PM 82.4 °F 28.4 °F 14% 29.81 in 10.0 mi SSW 13.8 mph 17.3 mph N/A   Clear
5:15 PM 82.4 °F 28.4 °F 14% 29.80 in 10.0 mi SW 15.0 mph 21.9 mph N/A   Clear
5:35 PM 80.6 °F 28.4 °F 15% 29.80 in 10.0 mi SW 13.8 mph - N/A   Clear
5:55 PM 80.6 °F 30.2 °F 16% 29.80 in 10.0 mi SSW 12.7 mph 24.2 mph N/A   Clear
6:15 PM 78.8 °F 30.2 °F 17% 29.80 in 10.0 mi South 12.7 mph 18.4 mph N/A   Clear
6:35 PM 77.0 °F 30.2 °F 18% 29.80 in 10.0 mi South 13.8 mph 18.4 mph N/A   Clear
6:55 PM 73.4 °F 30.2 °F 20% 29.80 in 10.0 mi South 11.5 mph - N/A   Clear
7:15 PM 71.6 °F 32.0 °F 23% 29.80 in 10.0 mi South 13.8 mph - N/A   Clear
7:35 PM 68.0 °F 32.0 °F 26% 29.80 in 10.0 mi South 13.8 mph - N/A   Clear
7:55 PM 68.0 °F 33.8 °F 28% 29.81 in 10.0 mi SSE 13.8 mph - N/A   Clear
8:15 PM 66.2 °F 35.6 °F 32% 29.80 in 10.0 mi SSE 15.0 mph - N/A   Clear
8:35 PM 64.4 °F 35.6 °F 34% 29.81 in 10.0 mi SSE 17.3 mph 20.7 mph N/A   Clear
8:55 PM 64.4 °F 37.4 °F 37% 29.81 in 10.0 mi SSE 16.1 mph 20.7 mph N/A   Clear
9:15 PM 64.4 °F 42.8 °F 45% 29.81 in 10.0 mi SSE 16.1 mph - N/A   Clear
9:35 PM 64.4 °F 44.6 °F 49% 29.81 in 10.0 mi SSE 17.3 mph - N/A   Clear
9:55 PM 64.4 °F 44.6 °F 49% 29.81 in 10.0 mi South 17.3 mph 25.3 mph N/A   Clear
10:15 PM 62.6 °F 46.4 °F 55% 29.81 in 10.0 mi SSE 18.4 mph 24.2 mph N/A   Clear
10:35 PM 62.6 °F 46.4 °F 55% 29.81 in 10.0 mi SSE 18.4 mph 24.2 mph N/A   Clear
10:55 PM 62.6 °F 46.4 °F 55% 29.80 in 10.0 mi South 18.4 mph 23.0 mph N/A   Clear
11:15 PM 62.6 °F 48.2 °F 59% 29.80 in 10.0 mi South 18.4 mph 25.3 mph N/A   Clear
11:35 PM 60.8 °F 48.2 °F 63% 29.80 in 10.0 mi South 18.4 mph 24.2 mph N/A   Clear
11:55 PM 62.6 °F 48.2 °F 59% 29.79 in 10.0 mi South 19.6 mph 26.5 mph N/A   Clear